TimeEDT,TemperatureF,Dew PointF,Humidity,Sea Level PressureIn,VisibilityMPH,Wind Direction,Wind SpeedMPH,Gust SpeedMPH,PrecipitationIn,Events,Conditions,WindDirDegrees,DateUTC
12:14 AM,55.6,51.8,87,29.92,10.0,NW,9.2,-,N/A,,Overcast,320,2013-09-03 04:14:00
12:33 AM,55.4,52.0,88,29.92,10.0,WNW,8.1,16.1,N/A,,Overcast,300,2013-09-03 04:33:00
12:54 AM,55.4,51.8,88,29.92,10.0,NW,6.9,-,N/A,,Overcast,310,2013-09-03 04:54:00
1:14 AM,55.6,51.8,87,29.92,10.0,NW,6.9,-,N/A,,Overcast,310,2013-09-03 05:14:00
1:33 AM,55.6,52.0,88,29.92,10.0,NW,6.9,-,N/A,,Overcast,310,2013-09-03 05:33:00
1:54 AM,55.4,52.0,88,29.92,10.0,WNW,4.6,-,N/A,,Overcast,300,2013-09-03 05:54:00
2:14 AM,55.4,52.0,88,29.92,10.0,NW,8.1,-,N/A,,Overcast,310,2013-09-03 06:14:00
2:33 AM,56.1,51.8,85,29.92,10.0,NW,6.9,-,N/A,,Overcast,320,2013-09-03 06:33:00
2:54 AM,56.3,51.8,85,29.92,10.0,WNW,5.8,-,N/A,,Overcast,300,2013-09-03 06:54:00
3:14 AM,55.9,51.8,86,29.92,10.0,NW,6.9,-,N/A,,Overcast,310,2013-09-03 07:14:00
3:33 AM,55.8,51.8,87,29.92,10.0,WNW,6.9,-,N/A,,Overcast,300,2013-09-03 07:33:00
3:54 AM,55.8,51.6,86,29.92,10.0,WNW,5.8,-,N/A,,Overcast,290,2013-09-03 07:54:00
4:13 AM,55.6,51.8,87,29.92,10.0,WNW,6.9,-,N/A,,Overcast,300,2013-09-03 08:13:00
4:33 AM,55.6,51.6,87,29.92,10.0,WNW,4.6,-,N/A,,Overcast,300,2013-09-03 08:33:00
4:54 AM,55.6,51.6,87,29.93,10.0,West,5.8,-,N/A,,Overcast,280,2013-09-03 08:54:00
5:13 AM,55.9,51.6,85,29.94,10.0,WNW,4.6,-,N/A,,Overcast,290,2013-09-03 09:13:00
5:33 AM,55.9,51.4,85,29.94,10.0,WNW,4.6,-,N/A,,Overcast,300,2013-09-03 09:33:00
5:54 AM,56.3,51.3,83,29.94,10.0,WNW,5.8,-,N/A,,Overcast,290,2013-09-03 09:54:00
6:13 AM,56.3,51.4,84,29.94,10.0,West,5.8,-,N/A,,Overcast,280,2013-09-03 10:13:00
6:33 AM,56.3,51.6,84,29.95,10.0,WNW,6.9,-,N/A,,Overcast,300,2013-09-03 10:33:00
6:54 AM,56.7,51.4,83,29.95,10.0,WNW,6.9,-,N/A,,Overcast,290,2013-09-03 10:54:00
7:13 AM,56.7,51.6,83,29.95,10.0,WNW,6.9,-,N/A,,Overcast,300,2013-09-03 11:13:00
7:33 AM,56.7,51.8,84,29.97,10.0,WNW,5.8,-,N/A,,Overcast,290,2013-09-03 11:33:00
7:54 AM,57.0,51.8,83,29.97,10.0,NW,9.2,-,N/A,,Overcast,310,2013-09-03 11:54:00
8:13 AM,57.2,51.8,82,29.98,10.0,NW,8.1,-,N/A,,Overcast,310,2013-09-03 12:13:00
8:33 AM,57.4,52.2,83,29.98,10.0,WNW,6.9,-,N/A,,Overcast,300,2013-09-03 12:33:00
8:54 AM,58.1,52.2,81,29.99,10.0,NW,6.9,-,N/A,,Overcast,310,2013-09-03 12:54:00
9:13 AM,60.1,53.1,78,29.99,10.0,NW,9.2,-,N/A,,Overcast,320,2013-09-03 13:13:00
9:33 AM,60.8,52.9,75,30.00,10.0,NW,8.1,-,N/A,,Overcast,310,2013-09-03 13:33:00
9:53 AM,60.4,52.2,74,30.00,10.0,NW,10.4,-,N/A,,Mostly Cloudy,310,2013-09-03 13:53:00
10:13 AM,61.3,52.2,72,30.00,10.0,NNW,3.5,-,N/A,,Mostly Cloudy,330,2013-09-03 14:13:00
10:34 AM,63.7,52.9,68,30.00,10.0,NW,10.4,-,N/A,,Overcast,320,2013-09-03 14:34:00
10:53 AM,64.4,52.3,65,30.00,10.0,NW,10.4,-,N/A,,Mostly Cloudy,320,2013-09-03 14:53:00
11:13 AM,64.4,52.2,64,30.01,10.0,NNW,10.4,16.1,N/A,,Scattered Clouds,330,2013-09-03 15:13:00
11:34 AM,65.5,52.0,62,30.01,10.0,NW,9.2,-,N/A,,Scattered Clouds,320,2013-09-03 15:34:00
11:53 AM,66.4,52.2,60,30.01,10.0,WNW,11.5,17.3,N/A,,Scattered Clouds,300,2013-09-03 15:53:00
12:13 PM,67.1,52.5,59,30.00,10.0,NW,10.4,-,N/A,,Scattered Clouds,320,2013-09-03 16:13:00
12:33 PM,67.5,52.2,58,30.00,10.0,North,10.4,17.3,N/A,,Scattered Clouds,350,2013-09-03 16:33:00
12:53 PM,68.5,52.0,55,30.00,10.0,NNW,5.8,16.1,N/A,,Scattered Clouds,330,2013-09-03 16:53:00
1:14 PM,68.7,51.8,55,30.00,10.0,West,8.1,-,N/A,,Scattered Clouds,280,2013-09-03 17:14:00
1:33 PM,69.6,52.0,53,30.00,10.0,WNW,5.8,-,N/A,,Scattered Clouds,290,2013-09-03 17:33:00
1:53 PM,70.5,53.2,54,30.00,10.0,NW,10.4,17.3,N/A,,Scattered Clouds,310,2013-09-03 17:53:00
2:14 PM,70.2,52.5,53,30.00,10.0,NNW,8.1,-,N/A,,Scattered Clouds,330,2013-09-03 18:14:00
2:33 PM,72.0,52.3,50,30.00,10.0,West,6.9,-,N/A,,Scattered Clouds,280,2013-09-03 18:33:00
2:53 PM,71.4,52.2,51,29.99,10.0,NNW,5.8,-,N/A,,Scattered Clouds,330,2013-09-03 18:53:00
3:13 PM,72.3,53.2,51,29.99,10.0,WNW,9.2,-,N/A,,Scattered Clouds,290,2013-09-03 19:13:00
3:33 PM,72.0,52.3,50,29.98,10.0,NNW,8.1,-,N/A,,Scattered Clouds,330,2013-09-03 19:33:00
3:54 PM,72.7,52.9,50,29.98,10.0,NNW,5.8,-,N/A,,Scattered Clouds,340,2013-09-03 19:54:00
4:13 PM,73.0,52.7,49,29.98,10.0,NNW,5.8,-,N/A,,Scattered Clouds,330,2013-09-03 20:13:00
4:33 PM,72.5,53.1,50,29.98,10.0,WNW,11.5,-,N/A,,Clear,290,2013-09-03 20:33:00
4:54 PM,72.9,52.9,49,29.98,10.0,West,10.4,-,N/A,,Clear,280,2013-09-03 20:54:00
5:13 PM,72.7,52.3,49,29.98,10.0,West,9.2,-,N/A,,Scattered Clouds,270,2013-09-03 21:13:00
5:33 PM,72.9,51.3,47,29.98,10.0,West,6.9,-,N/A,,Scattered Clouds,280,2013-09-03 21:33:00
5:54 PM,73.0,49.8,44,29.98,10.0,WNW,8.1,-,N/A,,Clear,290,2013-09-03 21:54:00
6:13 PM,72.5,50.7,46,29.98,10.0,West,6.9,-,N/A,,Clear,280,2013-09-03 22:13:00
6:33 PM,72.5,50.5,46,29.98,10.0,West,5.8,-,N/A,,Clear,280,2013-09-03 22:33:00
6:54 PM,72.0,50.7,47,29.98,10.0,West,5.8,-,N/A,,Clear,270,2013-09-03 22:54:00
7:13 PM,71.1,51.3,49,29.98,10.0,West,3.5,-,N/A,,Clear,270,2013-09-03 23:13:00
7:33 PM,70.0,52.7,54,29.97,10.0,West,4.6,-,N/A,,Clear,280,2013-09-03 23:33:00
7:54 PM,68.0,53.2,59,29.98,10.0,Calm,Calm,-,N/A,,Clear,0,2013-09-03 23:54:00
8:13 PM,66.4,53.4,63,29.98,10.0,Calm,Calm,-,N/A,,Clear,0,2013-09-04 00:13:00
8:33 PM,65.3,54.1,67,29.99,10.0,Calm,Calm,-,N/A,,Clear,0,2013-09-04 00:33:00
8:54 PM,62.8,54.1,73,29.99,10.0,West,3.5,-,N/A,,Clear,260,2013-09-04 00:54:00
9:13 PM,61.3,53.8,76,30.00,10.0,WSW,3.5,-,N/A,,Clear,250,2013-09-04 01:13:00
9:33 PM,61.0,53.2,76,30.00,10.0,Calm,Calm,-,N/A,,Clear,0,2013-09-04 01:33:00
9:54 PM,58.1,53.4,84,30.00,10.0,Calm,Calm,-,N/A,,Clear,0,2013-09-04 01:54:00
10:13 PM,58.3,53.4,84,30.00,10.0,Calm,Calm,-,N/A,,Clear,0,2013-09-04 02:13:00
10:33 PM,61.2,53.6,76,30.00,10.0,West,3.5,-,N/A,,Clear,260,2013-09-04 02:33:00
10:54 PM,61.2,53.6,76,30.01,10.0,West,4.6,-,N/A,,Clear,260,2013-09-04 02:54:00
11:13 PM,61.7,53.2,74,30.01,10.0,West,4.6,-,N/A,,Clear,270,2013-09-04 03:13:00
11:34 PM,61.7,53.6,75,30.01,10.0,West,5.8,-,N/A,,Clear,270,2013-09-04 03:34:00
11:54 PM,60.8,53.6,77,30.02,10.0,West,6.9,-,N/A,,Clear,280,2013-09-04 03:54:00